| time (UTC) | temp F | wind direction | speed MPH | gust MPH | rain 1hr in | rain 24hr in | rain mn in | humidity % | barometer mb |
| 20260505201444 | 19 | 310 | 0.0 | 0.0 | 0.00 | 0.00 | 0.00 | ||
| 20260505200928 | 20 | 200 | 0.0 | 0.0 | 0.00 | 0.00 | 0.00 | ||
| 20260505200410 | 21 | 187 | 0.0 | 0.0 | 0.00 | 0.00 | 0.00 | ||
| 20260505195854 | 21 | 137 | 0.0 | 0.0 | 0.00 | 0.00 | 0.00 | ||
| 20260505195336 | 22 | 131 | 0.0 | 0.0 | 0.00 | 0.00 | 0.00 | ||
| 20260505194820 | 22 | 138 | 0.0 | 0.0 | 0.00 | 0.00 | 0.00 | ||
| 20260505194303 | 21 | 141 | 0.0 | 0.0 | 0.00 | 0.00 | 0.00 | ||
| 20260505193746 | 21 | 147 | 0.0 | 0.0 | 0.00 | 0.00 | 0.00 | ||
| 20260505193229 | 21 | 144 | 0.0 | 0.0 | 0.00 | 0.00 | 0.00 | ||
| 20260505192712 | 21 | 198 | 0.0 | 0.0 | 0.00 | 0.00 | 0.00 | ||
| 20260505192155 | 21 | 337 | 0.0 | 0.0 | 0.00 | 0.00 | 0.00 | ||
| 20260505191638 | 21 | 337 | 0.0 | 0.0 | 0.00 | 0.00 | 0.00 | ||
| 20260505191121 | 21 | 110 | 0.0 | 0.0 | 0.00 | 0.00 | 0.00 | ||
| 20260505190604 | 21 | 22 | 0.0 | 0.0 | 0.00 | 0.00 | 0.00 | ||
| 20260505190047 | 22 | 0 | 0.0 | 0.0 | 0.00 | 0.00 | 0.00 | ||
| 20260505185530 | 22 | 337 | 0.0 | 0.0 | 0.00 | 0.00 | 0.00 | ||
| 20260505185013 | 22 | 0 | 0.0 | 0.0 | 0.00 | 0.00 | 0.00 | ||
| 20260505184456 | 23 | 292 | 0.0 | 0.0 | 0.00 | 0.00 | 0.00 | ||
| 20260505183939 | 23 | 142 | 0.0 | 0.0 | 0.00 | 0.00 | 0.00 | ||
| 20260505183422 | 24 | 136 | 0.0 | 0.0 | 0.00 | 0.00 | 0.00 | ||
| 20260505182905 | 25 | 148 | 0.0 | 0.0 | 0.00 | 0.00 | 0.00 | ||
| 20260505182348 | 26 | 143 | 0.0 | 0.0 | 0.00 | 0.00 | 0.00 | ||
| 20260505181831 | 26 | 148 | 0.0 | 0.0 | 0.00 | 0.00 | 0.00 | ||
| 20260505181314 | 27 | 140 | 0.0 | 0.0 | 0.00 | 0.00 | 0.00 | ||
| 20260505180757 | 27 | 147 | 0.0 | 0.0 | 0.00 | 0.00 | 0.00 | ||
| 20260505180240 | 27 | 155 | 0.0 | 0.0 | 0.00 | 0.00 | 0.00 | ||
| 20260505175723 | 27 | 152 | 0.0 | 0.0 | 0.00 | 0.00 | 0.00 | ||
| 20260505175206 | 28 | 144 | 0.0 | 0.0 | 0.00 | 0.00 | 0.00 | ||
| 20260505174649 | 28 | 151 | 0.0 | 0.0 | 0.00 | 0.00 | 0.00 | ||
| 20260505174132 | 29 | 141 | 0.0 | 0.0 | 0.00 | 0.00 | 0.00 | ||
| 20260505173615 | 28 | 148 | 0.0 | 0.0 | 0.00 | 0.00 | 0.00 | ||
| 20260505173058 | 29 | 147 | 0.0 | 0.0 | 0.00 | 0.00 | 0.00 | ||
| 20260505172541 | 29 | 148 | 0.0 | 0.0 | 0.00 | 0.00 | 0.00 | ||
| 20260505172024 | 29 | 144 | 0.0 | 0.0 | 0.00 | 0.00 | 0.00 | ||
| 20260505171507 | 30 | 154 | 0.0 | 0.0 | 0.00 | 0.00 | 0.00 | ||
| 20260505170951 | 31 | 152 | 0.0 | 1.0 | 0.00 | 0.00 | 0.00 | ||
| 20260505170433 | 31 | 151 | 0.0 | 0.0 | 0.00 | 0.00 | 0.00 | ||
| 20260505165917 | 32 | 145 | 0.0 | 0.0 | 0.00 | 0.00 | 0.00 | ||
| 20260505165359 | 32 | 157 | 0.0 | 0.0 | 0.00 | 0.00 | 0.00 | ||
| 20260505164843 | 31 | 152 | 0.0 | 0.0 | 0.00 | 0.00 | 0.00 | ||
| 20260505164324 | 32 | 154 | 0.0 | 0.0 | 0.00 | 0.00 | 0.00 | ||
| 20260505163808 | 32 | 144 | 0.0 | 0.0 | 0.00 | 0.00 | 0.00 | ||
| 20260505163250 | 32 | 162 | 0.0 | 0.0 | 0.00 | 0.00 | 0.00 | ||
| 20260505162734 | 32 | 138 | 0.0 | 0.0 | 0.00 | 0.00 | 0.00 | ||
| 20260505162217 | 31 | 148 | 0.0 | 0.0 | 0.00 | 0.00 | 0.00 | ||
| 20260505161143 | 31 | 146 | 0.0 | 1.0 | 0.00 | 0.00 | 0.00 | ||
| 20260505160626 | 30 | 152 | 0.0 | 0.0 | 0.00 | 0.00 | 0.00 | ||
| 20260505160109 | 29 | 160 | 0.0 | 0.0 | 0.00 | 0.00 | 0.00 | ||
| 20260505152927 | 32 | 137 | 0.0 | 0.0 | 0.00 | 0.00 | 0.00 | ||
| 20260505152410 | 33 | 139 | 0.0 | 0.0 | 0.00 | 0.00 | 0.00 | ||
| 20260505151853 | 33 | 156 | 0.0 | 0.0 | 0.00 | 0.00 | 0.00 | ||
| 20260505151336 | 33 | 145 | 0.0 | 0.0 | 0.00 | 0.00 | 0.00 | ||
| 20260505150819 | 32 | 146 | 0.0 | 0.0 | 0.00 | 0.00 | 0.00 | ||
| 20260505150302 | 32 | 143 | 0.0 | 0.0 | 0.00 | 0.00 | 0.00 | ||
| 20260505140455 | 33 | 154 | 0.0 | 1.0 | 0.00 | 0.00 | 0.00 | ||
| 20260505130131 | 33 | 148 | 0.0 | 1.0 | 0.00 | 0.00 | 0.00 | ||
| 20260505124541 | 34 | 159 | 0.0 | 0.0 | 0.00 | 0.00 | 0.00 | ||
| 20260505124024 | 34 | 148 | 0.0 | 0.0 | 0.00 | 0.00 | 0.00 | ||
| 20260505123507 | 32 | 154 | 0.0 | 1.0 | 0.00 | 0.00 | 0.00 | ||
| 20260505122950 | 32 | 157 | 0.0 | 1.0 | 0.00 | 0.00 | 0.00 | ||
| 20260505122433 | 35 | 153 | 0.0 | 0.0 | 0.00 | 0.00 | 0.00 | ||
| 20260505121916 | 36 | 156 | 0.0 | 2.0 | 0.00 | 0.00 | 0.00 | ||
| 20260505121359 | 35 | 151 | 0.0 | 0.0 | 0.00 | 0.00 | 0.00 | ||
| 20260505120842 | 32 | 146 | 0.0 | 0.0 | 0.00 | 0.00 | 0.00 | ||
| 20260505120325 | 33 | 149 | 0.0 | 0.0 | 0.00 | 0.00 | 0.00 | ||
| 20260505115808 | 32 | 146 | 0.0 | 0.0 | 0.00 | 0.00 | 0.00 | ||
| 20260505115251 | 32 | 148 | 0.0 | 0.0 | 0.00 | 0.00 | 0.00 | ||
| 20260505114734 | 32 | 150 | 0.0 | 0.0 | 0.00 | 0.00 | 0.00 | ||
| 20260505114217 | 32 | 149 | 0.0 | 0.0 | 0.00 | 0.00 | 0.00 | ||
| 20260505113143 | 32 | 140 | 0.0 | 0.0 | 0.00 | 0.00 | 0.00 | ||
| 20260505112626 | 32 | 140 | 0.0 | 0.0 | 0.00 | 0.00 | 0.00 | ||
| 20260505112109 | 32 | 144 | 0.0 | 0.0 | 0.00 | 0.00 | 0.00 | ||
| 20260505111552 | 32 | 153 | 0.0 | 0.0 | 0.00 | 0.00 | 0.00 | ||
| 20260505111035 | 33 | 148 | 0.0 | 0.0 | 0.00 | 0.00 | 0.00 | ||
| 20260505110518 | 33 | 144 | 0.0 | 1.0 | 0.00 | 0.00 | 0.00 | ||
| 20260505101746 | 29 | 152 | 0.0 | 0.0 | 0.00 | 0.00 | 0.00 | ||
| 20260505101228 | 27 | 145 | 0.0 | 1.0 | 0.00 | 0.00 | 0.00 | ||
| 20260505100712 | 28 | 150 | 0.0 | 0.0 | 0.00 | 0.00 | 0.00 | ||
| 20260505100154 | 27 | 157 | 0.0 | 0.0 | 0.00 | 0.00 | 0.00 | ||
| 20260505095638 | 28 | 141 | 0.0 | 0.0 | 0.00 | 0.00 | 0.00 | ||
| 20260505095120 | 28 | 147 | 0.0 | 0.0 | 0.00 | 0.00 | 0.00 | ||
| 20260505094604 | 30 | 155 | 0.0 | 0.0 | 0.00 | 0.00 | 0.00 | ||
| 20260505094047 | 31 | 155 | 0.0 | 0.0 | 0.00 | 0.00 | 0.00 | ||
| 20260505093530 | 31 | 149 | 0.0 | 0.0 | 0.00 | 0.00 | 0.00 | ||
| 20260505093013 | 29 | 152 | 0.0 | 0.0 | 0.00 | 0.00 | 0.00 | ||
| 20260505092456 | 28 | 148 | 0.0 | 0.0 | 0.00 | 0.00 | 0.00 | ||
| 20260505091939 | 26 | 148 | 0.0 | 0.0 | 0.00 | 0.00 | 0.00 | ||
| 20260505091422 | 26 | 148 | 0.0 | 0.0 | 0.00 | 0.00 | 0.00 | ||
| 20260505090905 | 26 | 154 | 0.0 | 0.0 | 0.00 | 0.00 | 0.00 | ||
| 20260505090348 | 26 | 149 | 0.0 | 0.0 | 0.00 | 0.00 | 0.00 | ||
| 20260505085831 | 27 | 150 | 0.0 | 0.0 | 0.00 | 0.00 | 0.00 | ||
| 20260505085314 | 26 | 144 | 0.0 | 0.0 | 0.00 | 0.00 | 0.00 | ||
| 20260505084757 | 27 | 172 | 0.0 | 0.0 | 0.00 | 0.00 | 0.00 | ||
| 20260505084240 | 29 | 170 | 0.0 | 0.0 | 0.00 | 0.00 | 0.00 | ||
| 20260505083723 | 30 | 154 | 0.0 | 0.0 | 0.00 | 0.00 | 0.00 | ||
| 20260505083206 | 31 | 155 | 0.0 | 0.0 | 0.00 | 0.00 | 0.00 | ||
| 20260505082649 | 31 | 155 | 0.0 | 0.0 | 0.00 | 0.00 | 0.00 | ||
| 20260505082132 | 30 | 154 | 0.0 | 0.0 | 0.00 | 0.00 | 0.00 | ||
| 20260505081615 | 31 | 163 | 0.0 | 0.0 | 0.00 | 0.00 | 0.00 | ||
| 20260505081058 | 31 | 139 | 0.0 | 0.0 | 0.00 | 0.00 | 0.00 | ||
| 20260505080541 | 31 | 143 | 0.0 | 0.0 | 0.00 | 0.00 | 0.00 | ||
| 20260505080024 | 31 | 156 | 0.0 | 0.0 | 0.00 | 0.00 | 0.00 | ||
| 20260505075507 | 31 | 145 | 0.0 | 0.0 | 0.00 | 0.00 | 0.00 | ||
| 20260505074950 | 31 | 337 | 0.0 | 0.0 | 0.00 | 0.00 | 0.00 | ||
| 20260505074433 | 31 | 146 | 0.0 | 0.0 | 0.00 | 0.00 | 0.00 | ||
| 20260505073359 | 30 | 146 | 0.0 | 0.0 | 0.00 | 0.00 | 0.00 | ||
| 20260505072842 | 30 | 145 | 0.0 | 0.0 | 0.00 | 0.00 | 0.00 | ||
| 20260505072325 | 30 | 151 | 0.0 | 0.0 | 0.00 | 0.00 | 0.00 | ||
| 20260505071808 | 29 | 159 | 0.0 | 0.0 | 0.00 | 0.00 | 0.00 | ||
| 20260505071251 | 28 | 138 | 0.0 | 0.0 | 0.00 | 0.00 | 0.00 | ||
| 20260505070735 | 27 | 150 | 0.0 | 0.0 | 0.00 | 0.00 | 0.00 | ||
| 20260505070217 | 28 | 152 | 0.0 | 0.0 | 0.00 | 0.00 | 0.00 | ||
| 20260505065701 | 28 | 155 | 0.0 | 0.0 | 0.00 | 0.00 | 0.00 | ||
| 20260505065143 | 28 | 144 | 0.0 | 0.0 | 0.00 | 0.00 | 0.00 | ||
| 20260505064627 | 29 | 140 | 0.0 | 0.0 | 0.00 | 0.00 | 0.00 | ||
| 20260505064109 | 28 | 160 | 0.0 | 0.0 | 0.00 | 0.00 | 0.00 | ||
| 20260505063553 | 27 | 155 | 0.0 | 0.0 | 0.00 | 0.00 | 0.00 | ||
| 20260505063035 | 27 | 147 | 0.0 | 0.0 | 0.00 | 0.00 | 0.00 | ||
| 20260505062519 | 26 | 150 | 0.0 | 0.0 | 0.00 | 0.00 | 0.00 | ||
| 20260505062002 | 26 | 148 | 0.0 | 0.0 | 0.00 | 0.00 | 0.00 | ||
| 20260505061445 | 27 | 150 | 0.0 | 0.0 | 0.00 | 0.00 | 0.00 | ||
| 20260505060928 | 27 | 146 | 0.0 | 0.0 | 0.00 | 0.00 | 0.00 | ||
| 20260505060411 | 27 | 155 | 0.0 | 0.0 | 0.00 | 0.00 | 0.00 | ||
| 20260505055854 | 26 | 145 | 0.0 | 0.0 | 0.00 | 0.00 | 0.00 | ||
| 20260505055337 | 26 | 170 | 0.0 | 0.0 | 0.00 | 0.00 | 0.00 | ||
| 20260505054820 | 25 | 175 | 0.0 | 0.0 | 0.00 | 0.00 | 0.00 | ||
| 20260505054303 | 23 | 161 | 0.0 | 0.0 | 0.00 | 0.00 | 0.00 | ||
| 20260505053746 | 23 | 166 | 0.0 | 0.0 | 0.00 | 0.00 | 0.00 | ||
| 20260505053229 | 23 | 147 | 0.0 | 0.0 | 0.00 | 0.00 | 0.00 | ||
| 20260505052712 | 21 | 144 | 0.0 | 0.0 | 0.00 | 0.00 | 0.00 | ||
| 20260505052155 | 21 | 147 | 0.0 | 0.0 | 0.00 | 0.00 | 0.00 | ||
| 20260505051638 | 20 | 139 | 0.0 | 0.0 | 0.00 | 0.00 | 0.00 | ||
| 20260505051121 | 20 | 337 | 0.0 | 0.0 | 0.00 | 0.00 | 0.00 | ||
| 20260505050604 | 20 | 247 | 0.0 | 0.0 | 0.00 | 0.00 | 0.00 | ||
| 20260505041314 | 18 | 162 | 0.0 | 0.0 | 0.00 | 0.00 | 0.00 | ||
| 20260505040757 | 18 | 337 | 0.0 | 0.0 | 0.00 | 0.00 | 0.00 | ||
| 20260505040241 | 18 | 196 | 0.0 | 0.0 | 0.00 | 0.00 | 0.00 | ||
| 20260505035724 | 18 | 0 | 0.0 | 0.0 | 0.00 | 0.00 | 0.00 | ||
| 20260505035206 | 18 | 337 | 0.0 | 0.0 | 0.00 | 0.00 | 0.00 | ||
| 20260505034650 | 17 | 337 | 0.0 | 0.0 | 0.00 | 0.00 | 0.00 | ||
| 20260505034132 | 17 | 337 | 0.0 | 0.0 | 0.00 | 0.00 | 0.00 | ||
| 20260505033616 | 18 | 124 | 0.0 | 0.0 | 0.00 | 0.00 | 0.00 | ||
| 20260505033058 | 17 | 337 | 0.0 | 0.0 | 0.00 | 0.00 | 0.00 | ||
| 20260505032542 | 17 | 125 | 0.0 | 0.0 | 0.00 | 0.00 | 0.00 | ||
| 20260505032024 | 17 | 136 | 0.0 | 0.0 | 0.00 | 0.00 | 0.00 | ||
| 20260505031508 | 17 | 144 | 0.0 | 0.0 | 0.00 | 0.00 | 0.00 | ||
| 20260505030950 | 17 | 129 | 0.0 | 0.0 | 0.00 | 0.00 | 0.00 | ||
| 20260505030434 | 16 | 337 | 0.0 | 0.0 | 0.00 | 0.00 | 0.00 | ||
| 20260505025917 | 16 | 144 | 0.0 | 0.0 | 0.00 | 0.00 | 0.00 | ||
| 20260505025400 | 16 | 56 | 0.0 | 0.0 | 0.00 | 0.00 | 0.00 | ||
| 20260505024843 | 16 | 337 | 0.0 | 0.0 | 0.00 | 0.00 | 0.00 | ||
| 20260505021701 | 17 | 148 | 0.0 | 0.0 | 0.00 | 0.00 | 0.00 | ||
| 20260505021144 | 17 | 135 | 0.0 | 0.0 | 0.00 | 0.00 | 0.00 | ||
| 20260505020627 | 17 | 136 | 0.0 | 0.0 | 0.00 | 0.00 | 0.00 | ||
| 20260505020110 | 17 | 135 | 0.0 | 0.0 | 0.00 | 0.00 | 0.00 | ||
| 20260505015553 | 17 | 337 | 0.0 | 0.0 | 0.00 | 0.00 | 0.00 | ||
| 20260505015036 | 17 | 120 | 0.0 | 0.0 | 0.00 | 0.00 | 0.00 | ||
| 20260505014519 | 17 | 142 | 0.0 | 0.0 | 0.00 | 0.00 | 0.00 | ||
| 20260505014002 | 18 | 154 | 0.0 | 0.0 | 0.00 | 0.00 | 0.00 | ||
| 20260505013445 | 18 | 337 | 0.0 | 0.0 | 0.00 | 0.00 | 0.00 | ||
| 20260505012928 | 19 | 247 | 0.0 | 0.0 | 0.00 | 0.00 | 0.00 | ||
| 20260505012411 | 19 | 200 | 0.0 | 0.0 | 0.00 | 0.00 | 0.00 | ||
| 20260505011854 | 19 | 172 | 0.0 | 0.0 | 0.00 | 0.00 | 0.00 | ||
| 20260505011337 | 20 | 172 | 0.0 | 0.0 | 0.00 | 0.00 | 0.00 | ||
| 20260505010820 | 20 | 145 | 0.0 | 0.0 | 0.00 | 0.00 | 0.00 | ||
| 20260505010303 | 20 | 154 | 0.0 | 0.0 | 0.00 | 0.00 | 0.00 | ||
| 20260505005746 | 20 | 168 | 0.0 | 0.0 | 0.00 | 0.00 | 0.00 | ||
| 20260505005229 | 19 | 158 | 0.0 | 0.0 | 0.00 | 0.00 | 0.00 | ||
| 20260505004712 | 20 | 140 | 0.0 | 0.0 | 0.00 | 0.00 | 0.00 | ||
| 20260505004155 | 20 | 135 | 0.0 | 0.0 | 0.00 | 0.00 | 0.00 | ||
| 20260505003638 | 20 | 135 | 0.0 | 0.0 | 0.00 | 0.00 | 0.00 | ||
| 20260505003121 | 19 | 138 | 0.0 | 0.0 | 0.00 | 0.00 | 0.00 | ||
| 20260505002604 | 19 | 123 | 0.0 | 0.0 | 0.00 | 0.00 | 0.00 | ||
| 20260505002047 | 19 | 130 | 0.0 | 0.0 | 0.00 | 0.00 | 0.00 | ||
| 20260505001531 | 19 | 337 | 0.0 | 0.0 | 0.00 | 0.00 | 0.00 | ||
| 20260505001013 | 18 | 127 | 0.0 | 0.0 | 0.00 | 0.00 | 0.00 | ||
| 20260505000457 | 18 | 337 | 0.0 | 0.0 | 0.00 | 0.00 | 0.00 | ||
| 20260504235939 | 18 | 146 | 0.0 | 0.0 | 0.00 | 0.00 | 0.00 | ||
| 20260504235423 | 17 | 137 | 0.0 | 0.0 | 0.00 | 0.00 | 0.00 | ||
| 20260504234905 | 17 | 337 | 0.0 | 0.0 | 0.00 | 0.00 | 0.00 | ||
| 20260504234349 | 18 | 172 | 0.0 | 0.0 | 0.00 | 0.00 | 0.00 | ||
| 20260504233832 | 18 | 123 | 0.0 | 0.0 | 0.00 | 0.00 | 0.00 | ||
| 20260504233315 | 18 | 112 | 0.0 | 0.0 | 0.00 | 0.00 | 0.00 | ||
| 20260504232758 | 18 | 22 | 0.0 | 0.0 | 0.00 | 0.00 | 0.00 | ||
| 20260504232241 | 17 | 187 | 0.0 | 0.0 | 0.00 | 0.00 | 0.00 | ||
| 20260504231724 | 17 | 337 | 0.0 | 0.0 | 0.00 | 0.00 | 0.00 | ||
| 20260504231207 | 17 | 180 | 0.0 | 0.0 | 0.00 | 0.00 | 0.00 | ||
| 20260504230650 | 17 | 135 | 0.0 | 0.0 | 0.00 | 0.00 | 0.00 | ||
| 20260504230133 | 18 | 346 | 0.0 | 0.0 | 0.00 | 0.00 | 0.00 | ||
| 20260504225616 | 18 | 97 | 0.0 | 0.0 | 0.00 | 0.00 | 0.00 | ||
| 20260504225059 | 19 | 78 | 0.0 | 0.0 | 0.00 | 0.00 | 0.00 | ||
| 20260504224542 | 19 | 165 | 0.0 | 0.0 | 0.00 | 0.00 | 0.00 | ||
| 20260504224025 | 19 | 175 | 0.0 | 0.0 | 0.00 | 0.00 | 0.00 | ||
| 20260504223508 | 19 | 148 | 0.0 | 0.0 | 0.00 | 0.00 | 0.00 | ||
| 20260504222434 | 18 | 146 | 0.0 | 0.0 | 0.00 | 0.00 | 0.00 | ||
| 20260504221917 | 19 | 146 | 0.0 | 0.0 | 0.00 | 0.00 | 0.00 | ||
| 20260504221400 | 19 | 337 | 0.0 | 0.0 | 0.00 | 0.00 | 0.00 | ||
| 20260504220843 | 19 | 337 | 0.0 | 0.0 | 0.00 | 0.00 | 0.00 | ||
| 20260504220326 | 19 | 337 | 0.0 | 0.0 | 0.00 | 0.00 | 0.00 | ||
| 20260504215809 | 19 | 337 | 0.0 | 0.0 | 0.00 | 0.00 | 0.00 | ||
| 20260504215252 | 20 | 157 | 0.0 | 0.0 | 0.00 | 0.00 | 0.00 | ||
| 20260504214735 | 20 | 0 | 0.0 | 0.0 | 0.00 | 0.00 | 0.00 | ||
| 20260504214218 | 20 | 337 | 0.0 | 0.0 | 0.00 | 0.00 | 0.00 | ||
| 20260504213701 | 20 | 67 | 0.0 | 0.0 | 0.00 | 0.00 | 0.00 | ||
| 20260504213144 | 20 | 337 | 0.0 | 0.0 | 0.00 | 0.00 | 0.00 | ||
| 20260504212627 | 20 | 337 | 0.0 | 0.0 | 0.00 | 0.00 | 0.00 | ||
| 20260504212110 | 20 | 337 | 0.0 | 0.0 | 0.00 | 0.00 | 0.00 | ||
| 20260504211553 | 21 | 337 | 0.0 | 0.0 | 0.00 | 0.00 | 0.00 | ||
| 20260504211036 | 21 | 107 | 0.0 | 0.0 | 0.00 | 0.00 | 0.00 | ||
| 20260504210519 | 22 | 141 | 0.0 | 0.0 | 0.00 | 0.00 | 0.00 | ||
| 20260504210003 | 22 | 145 | 0.0 | 0.0 | 0.00 | 0.00 | 0.00 | ||
| 20260504205446 | 22 | 131 | 0.0 | 0.0 | 0.00 | 0.00 | 0.00 | ||
| 20260504204928 | 23 | 119 | 0.0 | 0.0 | 0.00 | 0.00 | 0.00 | ||
| 20260504204412 | 23 | 129 | 0.0 | 0.0 | 0.00 | 0.00 | 0.00 | ||
| 20260504203854 | 23 | 138 | 0.0 | 0.0 | 0.00 | 0.00 | 0.00 | ||
| 20260504203338 | 23 | 149 | 0.0 | 0.0 | 0.00 | 0.00 | 0.00 | ||
| 20260504202820 | 23 | 142 | 0.0 | 0.0 | 0.00 | 0.00 | 0.00 | ||
| 20260504202305 | 23 | 147 | 0.0 | 0.0 | 0.00 | 0.00 | 0.00 | ||
| 20260504201746 | 22 | 149 | 0.0 | 0.0 | 0.00 | 0.00 | 0.00 |